Total_Precipitation_Accumulation
0.00 0.00 0.00 0.00 0.00 0.00 0.00 0.00 0.00 0.00 0.00 0.00 0.00 0.00 0.00 0.00 0.00 0.00 0.00 0.00 0.00 0.00 0.00 -0.00 -0.00 -0.00 -0.00 -0.00 -0.00 -0.00 0.00 0.00 0.00 0.00 0.00 0.00 0.00 0.00 0.00 0.00 0.00 0.00 0.00 0.00 0.00 0.00 0.00 -0.02 -0.03 -0.03 -0.09 -0.10 -0.09 -0.09 -0.07 -0.03 -0.03 -0.03 -0.02 -0.01 -0.01 -0.02 -0.01 -0.01 -0.03 -0.03 -0.00 -0.28 -0.34 -0.34 -0.14 -0.05 0.03 0.03 0.05 0.09 0.09 0.01 -0.03 -0.00 -0.00 0.02 0.09 0.03 -0.04 -0.04 -0.08 -0.02 -0.00 -0.00 0.00 0.00 0.00 0.00 0.00 -0.01 -0.01 -0.03 -0.01 -0.01 -0.01 -0.01 -0.00
0.00 0.00 0.00 0.00 0.00 0.00 0.00 0.00 0.00 0.00 0.00 0.00 0.00 0.00 0.00 0.00 0.00 0.00 0.00 0.00 0.00 -0.00 0.00 0.00 -0.00 -0.00 -0.00 -0.00 -0.00 -0.00 -0.00 0.00 0.00 0.00 0.00 0.00 0.00 0.00 0.00 0.00 0.00 0.00 0.00 0.00 0.00 0.00 0.00 -0.01 -0.02 -0.02 -0.06 -0.09 -0.10 -0.10 -0.07 -0.05 -0.05 -0.03 -0.02 -0.01 -0.01 -0.01 -0.01 -0.00 -0.04 -0.04 -0.08 0.00 -0.32 -0.32 -0.34 -0.09 -0.02 -0.02 0.02 0.08 0.08 0.05 -0.06 -0.15 -0.15 0.06 0.08 0.15 -0.03 -0.03 -0.06 -0.01 -0.00 -0.00 0.00 0.00 0.00 0.00 0.00 -0.00 -0.00 -0.02 -0.01 -0.00 -0.00 -0.00 -0.00
0.00 0.00 0.00 0.00 0.00 0.00 0.00 0.00 0.00 0.00 0.00 0.00 0.00 0.00 0.00 0.00 0.00 0.00 0.00 0.00 0.00 0.00 0.00 0.00 0.00 0.00 -0.00 -0.00 -0.00 -0.00 -0.00 -0.00 0.00 0.00 0.00 0.00 0.00 0.00 0.00 0.00 0.00 0.00 0.00 0.00 0.00 0.00 0.00 -0.00 -0.02 -0.02 -0.02 -0.07 -0.09 -0.09 -0.07 -0.05 -0.05 -0.03 -0.02 -0.01 -0.01 -0.01 -0.01 -0.00 -0.08 -0.08 -0.10 -0.10 -0.32 -0.32 -0.34 -0.15 -0.06 -0.06 0.01 0.08 0.08 0.15 -0.08 -0.12 -0.12 0.03 0.04 0.08 -0.01 -0.01 -0.19 -0.01 -0.00 -0.00 0.00 0.00 0.00 0.00 0.00 0.00 0.00 -0.00 -0.00 0.00 0.00 -0.00 -0.00
0.00 0.00 0.00 0.00 0.00 0.00 0.00 0.00 0.00 0.00 0.00 0.00 0.00 0.00 0.00 0.00 0.00 0.00 0.00 0.00 0.00 0.00 0.00 0.00 0.00 0.00 0.00 -0.00 -0.00 -0.00 -0.00 0.00 0.00 0.00 0.00 0.00 0.00 0.00 0.00 0.00 0.00 0.00 0.00 0.00 0.00 0.00 0.00 -0.00 -0.01 -0.01 -0.03 -0.07 -0.08 -0.08 -0.07 -0.06 -0.06 -0.04 -0.02 -0.01 -0.01 -0.00 -0.00 -0.00 -0.00 -0.00 -0.18 -0.12 -0.20 -0.20 -0.32 -0.29 -0.07 -0.07 -0.00 0.08 0.08 0.13 0.10 -0.07 -0.07 -0.15 0.10 0.10 0.05 0.05 -0.09 0.05 0.00 0.00 0.00 0.00 0.00 0.00 0.00 0.00 0.00 0.00 -0.00 0.00 0.00 0.00 0.00
0.00 0.00 0.00 0.00 0.00 0.00 0.00 0.00 0.00 0.00 0.00 0.00 0.00 0.00 0.00 0.00 0.00 0.00 0.00 0.00 0.00 0.00 0.00 0.00 0.00 0.00 0.00 -0.00 0.00 0.00 0.00 0.00 0.00 0.00 0.00 0.00 0.00 0.00 0.00 0.00 0.00 0.00 0.00 0.00 0.00 0.00 0.00 -0.00 -0.01 -0.01 -0.03 -0.05 -0.09 -0.09 -0.09 -0.06 -0.06 -0.05 -0.02 -0.01 -0.01 -0.00 -0.00 -0.00 -0.00 -0.00 -0.12 -0.19 -0.23 -0.23 -0.29 -0.25 -0.20 -0.20 0.03 0.05 0.05 0.09 0.08 -0.03 -0.03 -0.18 -0.09 0.10 0.18 0.18 -0.03 0.07 0.06 0.06 0.00 0.00 0.00 0.00 0.00 0.00 0.00 0.00 0.00 0.01 0.01 0.04 0.00
0.00 0.00 0.00 0.00 0.00 0.00 0.00 0.00 0.00 0.00 0.00 0.00 0.00 0.00 0.00 0.00 0.00 0.00 0.00 0.00 0.00 0.00 0.00 0.00 0.00 0.00 0.00 0.00 0.00 0.00 0.00 0.00 0.00 0.00 0.00 0.00 0.00 0.00 0.00 0.00 0.00 0.00 0.00 0.00 0.00 0.00 0.00 -0.00 -0.00 -0.00 -0.03 -0.04 -0.08 -0.08 -0.08 -0.07 -0.07 -0.05 -0.04 -0.01 -0.01 -0.01 -0.00 -0.00 -0.00 -0.00 -0.06 -0.26 -0.27 -0.27 -0.25 -0.23 -0.19 -0.19 0.01 0.03 0.03 0.06 0.14 0.09 0.09 -0.07 -0.08 0.02 0.16 0.16 -0.03 0.08 0.06 0.06 0.00 0.00 0.00 0.00 0.00 0.00 0.00 0.00 0.00 0.00 0.00 0.08 0.01
0.00 0.00 0.00 0.00 0.00 0.00 0.00 0.00 0.00 0.00 0.00 0.00 0.00 0.00 0.00 0.00 0.00 -0.00 -0.00 -0.00 -0.00 0.00 0.00 -0.00 -0.00 -0.00 0.00 0.00 0.00 0.00 0.00 0.00 0.00 0.00 0.00 0.00 0.00 0.00 0.00 0.00 0.00 0.00 0.00 0.00 0.00 0.00 0.00 -0.00 -0.00 -0.00 -0.03 -0.04 -0.06 -0.06 -0.08 -0.09 -0.09 -0.06 -0.04 -0.01 -0.01 -0.01 -0.00 0.00 0.00 0.00 0.00 -0.24 -0.24 -0.24 -0.29 -0.25 -0.19 -0.19 -0.12 0.02 0.02 0.06 0.08 0.06 0.06 0.07 0.00 0.08 0.14 0.14 0.05 0.09 0.06 0.06 0.05 0.00 0.00 0.00 -0.00 0.00 0.00 0.00 0.00 0.00 0.00 0.06 0.03
0.00 0.00 0.00 0.00 0.00 0.00 0.00 0.00 0.00 0.00 0.00 0.00 0.00 0.00 0.00 0.00 0.00 -0.00 -0.00 -0.00 -0.00 -0.00 -0.00 -0.00 -0.00 -0.00 -0.00 0.00 0.00 0.00 0.00 0.00 0.00 0.00 0.00 0.00 0.00 0.00 0.00 0.00 0.00 0.00 0.00 0.00 0.00 0.00 0.00 0.00 -0.01 -0.01 -0.01 -0.04 -0.06 -0.06 -0.08 -0.10 -0.10 -0.06 -0.05 -0.03 -0.03 -0.01 -0.00 0.00 0.00 0.00 0.00 -0.20 -0.29 -0.29 -0.35 -0.34 -0.21 -0.21 -0.13 -0.03 -0.03 0.04 0.08 0.06 0.06 0.05 0.12 0.18 0.02 0.02 0.07 0.09 0.13 0.13 0.05 0.06 0.00 0.00 -0.00 -0.00 -0.00 0.00 0.00 0.02 0.02 0.02 0.04
0.00 0.00 0.00 0.00 0.00 0.00 0.00 0.00 0.00 0.00 0.00 0.00 0.00 0.00 0.00 0.00 0.00 0.00 -0.00 -0.00 -0.00 -0.00 -0.00 -0.00 -0.00 -0.00 0.00 0.00 0.00 0.00 0.00 0.00 0.00 0.00 0.00 0.00 0.00 0.00 0.00 0.00 0.00 0.00 0.00 0.00 0.00 0.00 0.00 0.00 -0.01 -0.01 -0.01 -0.04 -0.05 -0.05 -0.08 -0.10 -0.10 -0.08 -0.05 -0.03 -0.03 -0.01 -0.01 -0.00 0.00 0.00 0.00 -0.15 -0.29 -0.29 -0.31 -0.33 -0.36 -0.36 -0.14 -0.05 -0.05 0.03 0.09 0.06 0.06 0.05 0.09 0.26 0.11 0.11 -0.03 0.09 0.15 0.15 0.05 0.05 0.05 0.05 -0.01 -0.01 -0.01 0.00 0.00 0.01 0.01 0.02 0.04
0.00 0.00 0.00 0.00 0.00 0.00 0.00 0.00 0.00 0.00 0.00 0.00 0.00 0.00 0.00 0.00 0.00 0.00 0.00 -0.00 -0.00 -0.00 -0.00 -0.00 -0.00 -0.00 0.00 0.00 -0.00 -0.00 0.00 0.00 0.00 0.00 0.00 0.00 0.00 0.00 0.00 -0.00 -0.00 0.00 0.00 0.00 0.00 0.00 0.00 0.00 -0.00 -0.00 -0.01 -0.02 -0.05 -0.05 -0.08 -0.08 -0.08 -0.07 -0.05 -0.03 -0.03 -0.02 -0.01 -0.00 0.00 0.00 0.00 0.00 -0.42 -0.42 -0.47 -0.31 -0.34 -0.34 -0.40 -0.08 -0.08 0.00 0.06 0.06 0.06 0.06 0.04 0.12 0.29 0.29 0.02 -0.10 0.08 0.08 0.07 0.07 0.06 0.06 0.02 -0.00 -0.00 0.00 0.00 0.03 0.03 0.00 0.04
0.00 0.00 0.00 0.00 0.00 0.00 0.00 0.00 0.00 0.00 0.00 0.00 0.00 0.00 0.00 0.00 0.00 0.00 0.00 0.00 0.00 0.00 0.00 0.00 0.00 0.00 0.00 0.00 -0.00 -0.00 -0.00 0.00 0.00 0.00 -0.00 -0.00 -0.00 -0.00 0.00 -0.00 -0.00 0.00 -0.00 0.00 0.00 0.00 0.00 0.00 -0.00 -0.00 -0.01 -0.01 -0.04 -0.04 -0.05 -0.07 -0.07 -0.07 -0.06 -0.04 -0.04 -0.02 -0.01 -0.00 -0.00 -0.00 0.00 0.00 -0.41 -0.41 -0.52 -0.51 -0.31 -0.31 -0.37 -0.13 -0.13 0.00 0.02 0.08 0.08 0.05 0.05 0.18 0.25 0.25 0.12 0.03 0.09 0.09 0.09 0.06 0.06 0.06 0.02 -0.03 -0.03 0.00 0.00 0.03 0.03 -0.01 0.00
0.00 0.00 0.00 0.00 0.00 0.00 0.00 0.00 0.00 0.00 0.00 0.00 0.00 0.00 0.00 0.00 0.00 0.00 0.00 0.00 0.00 0.00 0.00 0.00 0.00 0.00 0.00 0.00 -0.00 -0.00 -0.00 -0.00 0.00 0.00 -0.00 -0.00 -0.00 -0.00 -0.00 -0.00 -0.00 -0.00 -0.00 0.00 0.00 0.00 0.00 -0.00 -0.00 -0.00 -0.01 -0.01 -0.02 -0.02 -0.03 -0.06 -0.06 -0.08 -0.06 -0.05 -0.05 -0.02 -0.02 -0.01 -0.00 -0.00 0.00 0.00 -0.18 -0.18 -0.60 -0.52 -0.28 -0.28 -0.34 -0.28 -0.28 -0.09 0.01 0.08 0.08 0.07 0.04 0.17 0.31 0.31 0.37 0.30 0.19 0.19 0.09 0.07 0.05 0.05 0.04 -0.02 -0.02 -0.00 0.00 0.00 0.00 -0.01 -0.00
0.00 0.00 0.00 0.00 0.00 0.00 0.00 0.00 0.00 0.00 0.00 0.00 0.00 0.00 0.00 0.00 0.00 0.00 0.00 0.00 0.00 0.00 0.00 0.00 0.00 0.00 0.00 0.00 0.00 0.00 0.00 -0.00 0.00 0.00 -0.00 -0.00 -0.00 -0.00 -0.00 -0.00 -0.00 -0.00 -0.00 -0.00 0.00 0.00 0.00 0.00 -0.00 -0.00 -0.00 -0.01 -0.01 -0.01 -0.02 -0.04 -0.04 -0.06 -0.06 -0.04 -0.04 -0.02 -0.02 -0.01 -0.00 -0.00 -0.01 -0.00 -0.09 -0.09 -0.54 -0.59 -0.48 -0.48 -0.28 -0.23 -0.23 -0.19 0.01 0.03 0.03 0.05 0.05 0.05 0.30 0.30 0.39 0.36 0.30 0.30 0.22 0.13 0.06 0.06 0.04 -0.02 -0.02 -0.00 0.00 0.00 0.00 0.04 -0.00
0.00 0.00 0.00 0.00 0.00 0.00 0.00 0.00 0.00 0.00 0.00 0.00 0.00 0.00 0.00 0.00 0.00 0.00 0.00 0.00 0.00 0.00 0.00 0.00 0.00 0.00 0.00 -0.00 -0.00 -0.00 -0.00 -0.00 -0.00 -0.00 -0.00 -0.00 -0.00 -0.00 -0.00 -0.00 -0.00 -0.01 -0.01 -0.00 -0.00 -0.00 0.00 0.00 0.00 0.00 -0.00 -0.01 -0.01 -0.01 -0.01 -0.02 -0.02 -0.04 -0.06 -0.04 -0.04 -0.03 -0.02 -0.02 -0.02 -0.02 -0.04 -0.05 -0.12 -0.12 -0.50 -0.68 -0.60 -0.60 -0.32 -0.21 -0.21 -0.20 -0.09 -0.04 -0.04 0.04 0.04 0.02 0.09 0.09 0.36 0.32 0.38 0.38 0.35 0.37 0.19 0.19 0.03 0.04 0.04 -0.00 0.00 0.00 0.00 0.02 -0.01
0.00 0.00 0.00 0.00 0.00 0.00 0.00 0.00 0.00 0.00 0.00 0.00 0.00 0.00 0.00 0.00 0.00 0.00 0.00 0.00 0.00 0.00 0.00 0.00 0.00 0.00 -0.00 -0.00 -0.00 -0.00 -0.00 -0.00 -0.00 -0.00 -0.00 -0.00 -0.00 -0.00 -0.00 -0.00 -0.00 -0.01 -0.01 -0.01 -0.00 -0.00 0.00 -0.00 -0.00 -0.00 -0.00 -0.01 -0.01 -0.01 -0.01 -0.02 -0.02 -0.03 -0.04 -0.04 -0.04 -0.03 -0.02 -0.02 -0.03 -0.03 -0.04 -0.04 -0.14 -0.14 -0.49 -0.66 -0.73 -0.73 -0.43 -0.18 -0.18 -0.16 -0.14 -0.06 -0.06 0.03 0.00 0.00 0.09 0.09 0.32 0.35 0.32 0.32 0.40 0.38 0.37 0.37 0.22 0.19 0.19 0.07 0.00 0.00 0.00 0.01 -0.01
0.00 0.00 0.00 0.00 0.00 0.00 0.00 0.00 0.00 0.00 0.00 0.00 0.00 0.00 0.00 0.00 0.00 0.00 0.00 0.00 0.00 0.00 0.00 0.00 0.00 0.00 -0.00 -0.00 -0.00 -0.00 -0.00 -0.00 -0.00 -0.00 -0.00 -0.00 -0.00 -0.00 -0.00 -0.00 -0.00 -0.00 -0.00 -0.00 -0.00 -0.00 -0.00 -0.00 -0.00 -0.00 -0.00 -0.00 -0.01 -0.01 -0.01 -0.01 -0.01 -0.02 -0.02 -0.03 -0.03 -0.03 -0.03 -0.02 -0.10 -0.10 -0.09 -0.09 -0.05 -0.05 -0.47 -0.64 -0.69 -0.69 -0.57 -0.39 -0.39 -0.14 -0.16 -0.08 -0.08 -0.00 0.06 0.00 0.04 0.04 0.14 0.28 0.34 0.34 0.35 0.39 0.38 0.38 0.35 0.21 0.21 0.07 0.00 0.00 0.00 0.00 -0.01
0.00 0.00 0.00 0.00 0.00 0.00 0.00 0.00 0.00 0.00 0.00 0.00 0.00 0.00 0.00 0.00 0.00 0.00 0.00 0.00 0.00 0.00 -0.00 -0.00 -0.00 -0.00 -0.00 -0.00 0.00 0.00 -0.00 -0.00 -0.00 -0.00 -0.00 -0.00 -0.00 -0.00 -0.00 -0.00 -0.00 -0.00 -0.00 -0.01 -0.01 -0.01 -0.01 -0.01 -0.01 -0.01 -0.00 -0.00 -0.01 -0.01 -0.01 -0.01 -0.01 -0.01 -0.02 -0.02 -0.02 -0.03 -0.03 -0.04 -0.13 -0.13 -0.21 -0.22 -0.20 -0.20 -0.27 -0.59 -0.64 -0.64 -0.66 -0.43 -0.43 -0.29 -0.14 -0.10 -0.10 -0.03 0.06 0.05 0.05 0.05 0.07 0.11 0.32 0.32 0.34 0.34 0.39 0.39 0.37 0.35 0.35 0.07 0.05 0.00 0.00 0.00 0.01
0.00 0.00 0.00 0.00 0.00 0.00 0.00 0.00 0.00 0.00 0.00 0.00 0.00 0.00 0.00 0.00 0.00 0.00 0.00 0.00 0.00 0.00 -0.00 -0.00 -0.00 -0.00 -0.00 0.00 0.00 0.00 -0.00 -0.00 -0.01 -0.01 -0.01 -0.00 -0.00 -0.00 -0.00 -0.00 -0.00 -0.00 -0.01 -0.01 -0.01 -0.01 -0.02 -0.01 -0.01 -0.01 -0.01 -0.00 -0.02 -0.02 -0.03 -0.01 -0.01 -0.01 -0.01 -0.02 -0.02 -0.02 -0.03 -0.04 -0.11 -0.11 -0.21 -0.28 -0.26 -0.26 -0.30 -0.54 -0.58 -0.58 -0.67 -0.42 -0.42 -0.29 -0.18 -0.08 -0.08 -0.07 0.04 0.04 0.06 0.06 0.06 0.10 0.17 0.17 0.34 0.32 0.35 0.35 0.39 0.38 0.38 0.09 0.06 0.07 0.07 0.00 0.01
0.00 0.00 0.00 0.00 0.00 0.00 0.00 0.00 0.00 0.00 0.00 0.00 0.00 0.00 0.00 0.00 0.00 0.00 0.00 -0.00 -0.00 -0.00 -0.00 -0.00 -0.00 -0.00 0.00 0.00 0.00 0.00 0.00 0.00 -0.01 -0.01 -0.01 -0.01 -0.01 -0.00 -0.00 -0.00 -0.00 -0.00 -0.00 -0.00 -0.00 -0.00 -0.01 -0.00 -0.01 -0.01 -0.01 -0.00 -0.01 -0.01 -0.03 -0.03 -0.03 -0.01 -0.01 -0.02 -0.02 -0.02 -0.03 -0.04 -0.06 -0.06 -0.21 -0.28 -0.32 -0.32 -0.38 -0.40 -0.54 -0.54 -0.60 -0.59 -0.59 -0.34 -0.22 -0.06 -0.06 -0.06 -0.03 0.03 0.04 0.04 0.06 0.10 0.16 0.16 0.27 0.30 0.32 0.32 0.39 0.38 0.38 0.30 0.06 0.07 0.07 0.03 -0.00
0.00 -0.00 -0.00 -0.00 -0.00 -0.00 -0.00 0.00 -0.00 -0.00 0.00 0.00 0.00 0.00 -0.00 -0.00 -0.00 -0.00 -0.00 -0.00 -0.00 -0.00 -0.00 -0.00 0.00 0.00 0.00 0.00 0.00 0.00 0.00 0.01 0.00 0.00 0.00 0.00 0.00 0.00 -0.00 -0.00 -0.00 -0.00 0.00 0.00 0.00 0.00 -0.00 -0.00 -0.00 -0.00 -0.00 -0.00 -0.00 -0.00 -0.00 -0.02 -0.02 -0.05 -0.03 -0.03 -0.03 -0.05 -0.04 -0.05 -0.07 -0.07 -0.09 -0.23 -0.30 -0.30 -0.31 -0.44 -0.44 -0.44 -0.59 -0.63 -0.63 -0.51 -0.29 -0.25 -0.25 -0.17 -0.02 0.00 0.01 0.01 0.05 0.09 0.12 0.12 0.21 0.29 0.33 0.33 0.35 0.35 0.35 0.35 0.26 0.12 0.12 0.07 0.05
0.00 -0.00 -0.00 -0.00 -0.00 -0.00 -0.00 -0.00 -0.00 -0.00 -0.00 0.00 -0.00 -0.00 -0.00 -0.00 -0.00 -0.00 -0.00 -0.00 -0.00 -0.00 -0.00 -0.00 -0.00 -0.00 0.00 0.00 0.00 0.00 0.01 0.01 0.01 0.01 0.00 0.00 0.00 0.00 -0.00 -0.00 -0.00 -0.00 0.00 0.00 0.00 0.00 -0.00 -0.00 -0.00 -0.00 -0.00 -0.00 -0.00 -0.00 -0.00 -0.00 -0.00 -0.02 -0.04 -0.03 -0.03 -0.05 -0.07 -0.06 -0.08 -0.08 -0.10 -0.13 -0.27 -0.27 -0.30 -0.40 -0.43 -0.43 -0.58 -0.59 -0.59 -0.54 -0.46 -0.32 -0.32 -0.22 -0.11 0.00 0.00 0.00 0.01 0.07 0.14 0.14 0.19 0.28 0.30 0.30 0.36 0.37 0.37 0.35 0.30 0.21 0.21 0.07 0.02
-0.00 -0.00 -0.00 -0.00 -0.00 -0.00 -0.00 -0.00 -0.00 -0.00 -0.00 -0.00 -0.00 -0.00 -0.00 -0.00 -0.00 -0.00 -0.00 -0.00 -0.00 -0.00 -0.00 -0.01 -0.00 -0.00 -0.00 0.00 0.00 0.00 0.00 0.01 0.01 0.01 0.00 0.00 0.00 0.00 -0.00 -0.00 -0.00 -0.00 0.00 0.00 0.00 0.00 -0.00 -0.00 -0.00 -0.00 -0.00 -0.00 -0.00 -0.00 -0.00 -0.00 -0.00 -0.00 -0.03 -0.04 -0.04 -0.02 -0.06 -0.07 -0.06 -0.06 -0.09 -0.12 -0.29 -0.29 -0.33 -0.39 -0.41 -0.41 -0.56 -0.63 -0.63 -0.56 -0.47 -0.46 -0.46 -0.33 -0.18 -0.08 0.00 0.00 0.01 0.06 0.12 0.12 0.14 0.24 0.27 0.27 0.33 0.38 0.38 0.38 0.35 0.29 0.29 0.10 0.07
0.00 -0.00 -0.00 -0.00 -0.00 -0.00 -0.00 -0.00 -0.00 -0.00 -0.00 -0.00 -0.00 -0.00 -0.00 -0.00 -0.00 -0.00 -0.00 -0.00 -0.00 -0.01 -0.01 -0.01 -0.01 -0.01 -0.00 0.00 0.01 0.01 0.01 0.01 0.01 0.01 0.01 0.00 0.00 -0.00 -0.00 -0.00 -0.00 -0.00 0.00 0.00 0.00 0.00 -0.00 -0.00 -0.00 -0.00 -0.00 -0.00 -0.00 -0.00 0.00 -0.00 -0.00 -0.00 -0.00 -0.04 -0.04 -0.03 -0.01 -0.04 -0.05 -0.05 -0.08 -0.12 -0.19 -0.19 -0.35 -0.40 -0.31 -0.31 -0.53 -0.58 -0.58 -0.63 -0.59 -0.47 -0.47 -0.44 -0.30 -0.12 0.00 0.00 0.01 0.01 0.09 0.09 0.14 0.17 0.24 0.24 0.31 0.38 0.38 0.41 0.38 0.39 0.39 0.19 0.08
0.00 -0.00 -0.00 -0.00 -0.00 -0.00 -0.00 -0.00 -0.00 -0.00 -0.00 -0.00 -0.00 -0.00 -0.00 -0.00 -0.00 -0.00 -0.00 -0.00 -0.00 -0.01 -0.01 -0.01 -0.00 -0.00 -0.00 -0.00 0.00 0.00 0.00 0.00 0.00 0.00 0.00 0.00 0.00 -0.00 -0.01 -0.01 -0.01 -0.00 -0.00 0.00 -0.00 -0.00 -0.00 -0.00 -0.00 -0.00 -0.00 -0.00 -0.00 -0.00 -0.00 -0.00 -0.00 -0.00 -0.00 -0.03 -0.03 -0.04 -0.02 -0.03 -0.05 -0.05 -0.05 -0.11 -0.16 -0.16 -0.27 -0.38 -0.43 -0.43 -0.48 -0.54 -0.54 -0.60 -0.65 -0.54 -0.54 -0.44 -0.30 -0.21 -0.04 -0.04 0.00 0.00 0.03 0.03 0.13 0.15 0.20 0.20 0.32 0.39 0.39 0.41 0.39 0.40 0.40 0.37 0.14
0.00 -0.00 -0.00 -0.00 -0.00 -0.00 -0.00 -0.00 -0.00 -0.00 -0.00 -0.00 -0.00 -0.00 -0.00 -0.00 -0.00 -0.00 -0.00 -0.00 -0.00 -0.01 -0.01 -0.01 -0.01 -0.01 -0.00 -0.00 0.00 0.00 0.00 0.00 0.00 0.00 0.00 -0.00 -0.00 -0.01 -0.01 -0.01 -0.01 -0.01 -0.01 -0.01 -0.01 -0.01 -0.00 -0.00 -0.00 -0.00 -0.00 -0.00 -0.00 -0.00 -0.00 -0.00 -0.00 -0.00 -0.00 -0.01 -0.01 -0.03 -0.03 -0.03 -0.05 -0.05 -0.06 -0.07 -0.18 -0.18 -0.23 -0.43 -0.43 -0.43 -0.49 -0.53 -0.53 -0.55 -0.65 -0.64 -0.64 -0.49 -0.43 -0.23 -0.05 -0.05 0.00 0.01 0.02 0.02 0.05 0.12 0.18 0.18 0.25 0.40 0.40 0.37 0.37 0.36 0.36 0.40 0.36
0.00 -0.00 -0.00 -0.00 -0.00 -0.00 -0.00 0.00 -0.00 -0.00 -0.00 -0.00 -0.00 -0.00 -0.00 -0.00 -0.00 -0.00 -0.00 -0.01 -0.01 -0.01 -0.01 -0.01 -0.00 -0.00 -0.00 -0.00 -0.00 -0.00 -0.00 0.00 -0.00 -0.00 -0.00 -0.00 -0.00 -0.01 -0.01 -0.01 -0.01 -0.01 -0.00 -0.00 -0.00 -0.00 -0.00 -0.00 -0.00 -0.00 -0.00 -0.00 -0.00 -0.00 -0.00 -0.00 -0.00 0.00 -0.00 -0.01 -0.01 -0.01 -0.03 -0.02 -0.04 -0.04 -0.06 -0.07 -0.16 -0.16 -0.26 -0.33 -0.47 -0.47 -0.49 -0.55 -0.55 -0.55 -0.62 -0.72 -0.72 -0.60 -0.46 -0.36 -0.06 -0.06 0.01 0.01 0.02 0.02 0.03 0.06 0.14 0.14 0.25 0.37 0.37 0.39 0.38 0.36 0.36 0.40 0.38
0.00 -0.00 -0.00 -0.00 -0.00 -0.00 0.00 0.00 -0.00 -0.00 -0.00 -0.00 -0.00 -0.00 -0.00 -0.00 -0.00 -0.00 -0.00 -0.01 -0.01 -0.01 -0.01 -0.01 -0.01 -0.01 -0.01 -0.01 -0.00 -0.00 -0.00 -0.00 -0.00 -0.00 -0.00 -0.00 -0.00 -0.00 -0.01 -0.01 -0.01 -0.01 -0.01 -0.01 -0.01 -0.01 -0.01 -0.00 -0.00 -0.00 -0.00 -0.00 -0.00 -0.00 -0.00 -0.00 -0.00 -0.00 -0.01 -0.01 -0.01 -0.01 -0.02 -0.01 -0.02 -0.02 -0.08 -0.07 -0.17 -0.17 -0.24 -0.34 -0.43 -0.43 -0.50 -0.53 -0.53 -0.60 -0.60 -0.72 -0.72 -0.82 -0.52 -0.39 -0.22 -0.22 0.01 0.01 0.02 0.02 0.05 0.07 0.08 0.08 0.25 0.36 0.36 0.42 0.35 0.33 0.33 0.28 0.38
0.00 0.00 -0.00 0.00 0.00 0.00 0.00 0.00 0.00 0.00 0.00 -0.00 -0.00 -0.00 -0.00 -0.01 -0.01 -0.01 -0.01 -0.01 -0.01 -0.01 -0.01 -0.01 -0.01 -0.01 -0.01 -0.01 -0.01 -0.01 -0.01 -0.00 -0.00 -0.00 -0.00 -0.00 -0.00 -0.01 -0.01 -0.01 -0.01 -0.01 -0.01 -0.01 -0.01 -0.01 -0.01 -0.01 -0.00 -0.00 -0.00 -0.00 -0.00 -0.00 -0.00 -0.00 -0.00 -0.01 -0.02 -0.02 -0.02 -0.01 -0.01 -0.01 -0.01 -0.01 -0.02 -0.12 -0.21 -0.21 -0.27 -0.39 -0.46 -0.46 -0.51 -0.53 -0.53 -0.61 -0.55 -0.69 -0.69 -0.92 -0.87 -0.44 -0.23 -0.23 -0.09 0.01 0.02 0.02 0.03 0.06 0.07 0.07 0.09 0.36 0.36 0.43 0.43 0.36 0.36 0.23 0.26
0.00 0.00 0.00 0.00 0.00 0.00 0.00 0.00 0.00 0.00 0.00 -0.00 -0.00 -0.00 -0.00 -0.00 -0.00 -0.01 -0.01 -0.01 -0.01 -0.01 -0.01 -0.01 -0.01 -0.01 -0.01 -0.01 -0.01 -0.01 -0.01 -0.01 -0.01 -0.01 -0.01 -0.01 -0.01 -0.01 -0.01 -0.01 -0.01 -0.01 -0.01 -0.01 -0.01 -0.01 -0.01 -0.01 -0.00 -0.00 -0.00 -0.00 -0.00 -0.00 -0.00 -0.00 -0.00 -0.00 -0.01 -0.02 -0.02 -0.03 -0.03 -0.04 -0.01 -0.01 -0.01 -0.08 -0.23 -0.23 -0.28 -0.34 -0.47 -0.47 -0.53 -0.55 -0.55 -0.58 -0.53 -0.55 -0.55 -0.93 -0.92 -0.80 -0.24 -0.24 -0.10 -0.02 0.01 0.01 0.02 0.03 0.07 0.07 0.10 0.16 0.16 0.47 0.45 0.48 0.48 0.30 0.22
0.00 0.00 0.00 0.00 0.00 0.00 0.00 0.00 0.00 0.00 0.00 -0.00 -0.00 -0.00 -0.00 -0.00 -0.00 -0.01 -0.01 -0.01 -0.01 -0.01 -0.01 -0.01 -0.01 -0.01 -0.01 -0.01 -0.01 -0.01 -0.01 -0.01 -0.01 -0.01 -0.01 -0.01 -0.01 -0.01 -0.01 -0.01 -0.01 -0.01 -0.01 -0.01 -0.02 -0.02 -0.01 -0.01 -0.01 -0.01 -0.00 -0.00 -0.00 -0.00 -0.00 -0.00 -0.00 -0.00 -0.00 -0.00 -0.00 -0.03 -0.04 -0.05 -0.04 -0.04 -0.03 -0.06 -0.23 -0.23 -0.31 -0.38 -0.49 -0.49 -0.53 -0.57 -0.57 -0.56 -0.63 -0.62 -0.62 -0.88 -0.93 -0.89 -0.32 -0.32 -0.09 -0.02 0.00 0.00 0.02 0.03 0.05 0.05 0.07 0.09 0.09 0.31 0.57 0.66 0.66 0.52 0.31
0.00 0.00 0.00 0.00 0.00 0.00 0.00 0.00 0.00 0.00 0.00 -0.00 -0.00 -0.00 -0.00 -0.01 -0.01 -0.01 -0.01 -0.01 -0.01 -0.01 -0.01 -0.01 -0.02 -0.02 -0.02 -0.01 -0.02 -0.02 -0.01 -0.01 -0.01 -0.01 -0.01 -0.01 -0.01 -0.02 -0.02 -0.02 -0.02 -0.02 -0.02 -0.02 -0.02 -0.02 -0.02 -0.01 -0.01 -0.01 -0.00 -0.00 -0.00 -0.00 -0.00 -0.00 -0.00 -0.00 0.00 -0.00 -0.00 -0.00 -0.03 -0.02 -0.04 -0.04 -0.06 -0.10 -0.15 -0.15 -0.36 -0.42 -0.52 -0.52 -0.57 -0.55 -0.55 -0.56 -0.67 -0.74 -0.74 -0.77 -0.83 -0.91 -0.82 -0.82 -0.10 -0.01 0.00 0.00 0.00 0.03 0.04 0.04 0.04 0.05 0.05 0.25 0.51 0.79 0.79 0.69 0.54
0.00 0.00 0.00 0.00 0.00 0.00 0.00 0.00 0.00 0.00 0.00 -0.00 -0.00 -0.00 -0.00 -0.01 -0.01 -0.01 -0.01 -0.01 -0.01 -0.01 -0.01 -0.01 -0.01 -0.01 -0.01 -0.02 -0.01 -0.01 -0.01 -0.01 -0.03 -0.03 -0.03 -0.02 -0.02 -0.02 -0.02 -0.02 -0.02 -0.02 -0.02 -0.02 -0.02 -0.02 -0.02 -0.01 -0.01 -0.01 -0.00 -0.00 -0.00 -0.00 -0.00 -0.00 -0.00 -0.00 -0.00 0.00 0.00 -0.00 -0.00 -0.01 -0.02 -0.02 -0.03 -0.10 -0.13 -0.13 -0.20 -0.47 -0.52 -0.52 -0.57 -0.59 -0.59 -0.54 -0.61 -0.75 -0.75 -0.80 -0.87 -0.92 -0.92 -0.92 -0.61 -0.01 0.00 0.00 0.00 0.01 0.04 0.04 0.03 0.04 0.04 0.26 0.54 0.70 0.70 0.84 0.74
0.00 0.00 0.00 0.00 0.00 0.00 0.00 0.00 0.00 0.00 0.00 -0.00 -0.00 -0.00 -0.00 -0.00 -0.00 -0.01 -0.01 -0.01 -0.01 -0.01 -0.01 -0.02 -0.02 -0.02 -0.02 -0.02 -0.01 -0.01 -0.01 -0.01 -0.02 -0.02 -0.02 -0.02 -0.02 -0.02 -0.02 -0.02 -0.02 -0.02 -0.02 -0.02 -0.02 -0.02 -0.02 -0.02 -0.01 -0.01 -0.01 -0.00 -0.00 -0.00 -0.00 -0.00 -0.00 -0.00 -0.00 0.00 0.00 -0.00 -0.01 -0.01 -0.01 -0.01 -0.01 -0.06 -0.08 -0.08 -0.16 -0.27 -0.46 -0.46 -0.54 -0.58 -0.58 -0.56 -0.63 -0.67 -0.67 -0.80 -0.88 -0.81 -0.92 -0.92 -0.70 -0.33 0.00 0.00 0.00 0.01 0.02 0.02 0.03 0.04 0.04 0.07 0.42 0.43 0.43 0.69 0.86
0.00 0.00 0.00 0.00 0.00 0.00 0.00 0.00 0.00 0.00 0.00 -0.00 -0.00 -0.00 -0.00 -0.00 -0.00 -0.01 -0.01 -0.01 -0.01 -0.01 -0.01 -0.01 -0.02 -0.02 -0.02 -0.02 -0.02 -0.02 -0.01 -0.01 -0.01 -0.01 -0.01 -0.01 -0.01 -0.01 -0.01 -0.02 -0.02 -0.02 -0.02 -0.02 -0.02 -0.02 -0.02 -0.02 -0.02 -0.02 -0.01 -0.01 -0.00 -0.00 -0.00 -0.00 -0.00 -0.00 -0.00 -0.00 -0.00 0.00 -0.01 -0.03 -0.02 -0.02 -0.01 -0.01 -0.07 -0.07 -0.12 -0.20 -0.35 -0.35 -0.45 -0.51 -0.51 -0.57 -0.65 -0.72 -0.72 -0.76 -0.90 -0.85 -0.91 -0.91 -0.75 -0.41 -0.08 -0.08 0.00 0.00 0.02 0.02 0.05 0.01 0.01 0.04 0.18 0.30 0.30 0.39 0.64
0.00 0.00 0.00 0.00 0.00 0.00 0.00 0.00 0.00 0.00 0.00 -0.00 -0.00 -0.00 -0.00 -0.00 -0.00 -0.01 -0.01 -0.02 -0.02 -0.01 -0.01 -0.02 -0.02 -0.02 -0.02 -0.02 -0.02 -0.02 -0.01 -0.01 -0.01 -0.01 -0.01 -0.01 -0.01 -0.01 -0.01 -0.02 -0.02 -0.02 -0.02 -0.02 -0.02 -0.02 -0.02 -0.02 -0.02 -0.02 -0.02 -0.01 -0.01 -0.01 -0.00 -0.00 -0.00 -0.00 -0.00 -0.00 -0.00 -0.00 -0.00 -0.02 -0.03 -0.03 -0.03 -0.01 -0.02 -0.02 -0.11 -0.17 -0.23 -0.23 -0.39 -0.45 -0.45 -0.47 -0.67 -0.75 -0.75 -0.80 -0.89 -0.91 -0.87 -0.87 -0.90 -0.46 -0.13 -0.13 -0.00 0.00 0.02 0.02 0.04 0.05 0.05 0.03 0.16 0.26 0.26 0.22 0.29
0.00 0.00 0.00 0.00 0.00 0.00 0.00 0.00 0.00 0.00 0.00 -0.00 -0.00 -0.00 -0.00 -0.01 -0.01 -0.01 -0.02 -0.02 -0.02 -0.02 -0.02 -0.01 -0.02 -0.02 -0.02 -0.03 -0.02 -0.02 -0.02 -0.01 -0.01 -0.01 -0.01 -0.02 -0.02 -0.01 -0.01 -0.01 -0.01 -0.02 -0.02 -0.02 -0.01 -0.01 -0.02 -0.02 -0.02 -0.02 -0.01 -0.01 -0.01 -0.01 -0.01 -0.01 -0.01 -0.00 -0.00 -0.00 -0.00 -0.00 -0.00 -0.02 -0.07 -0.07 -0.04 -0.01 -0.03 -0.03 -0.07 -0.16 -0.21 -0.21 -0.27 -0.42 -0.42 -0.42 -0.45 -0.77 -0.77 -0.87 -0.91 -0.93 -0.87 -0.87 -0.87 -0.76 -0.18 -0.18 -0.01 0.00 0.01 0.01 0.04 0.07 0.07 0.05 0.10 0.21 0.21 0.27 0.14
0.00 0.00 0.00 0.00 0.00 0.00 0.00 0.00 0.00 0.00 0.00 -0.00 -0.00 -0.00 -0.00 -0.01 -0.01 -0.01 -0.02 -0.02 -0.02 -0.02 -0.02 -0.01 -0.02 -0.02 -0.02 -0.03 -0.03 -0.03 -0.02 -0.02 -0.02 -0.02 -0.02 -0.01 -0.01 -0.01 -0.01 -0.01 -0.01 -0.01 -0.01 -0.01 -0.01 -0.01 -0.01 -0.01 -0.01 -0.01 -0.01 -0.00 -0.00 -0.00 -0.00 -0.00 -0.00 -0.00 -0.00 -0.00 -0.00 -0.00 -0.00 -0.02 -0.07 -0.07 -0.05 -0.02 -0.05 -0.05 -0.10 -0.15 -0.24 -0.24 -0.26 -0.31 -0.31 -0.43 -0.48 -0.60 -0.60 -0.89 -0.94 -1.00 -0.91 -0.91 -0.84 -0.78 -0.56 -0.56 -0.02 0.00 0.00 0.00 0.03 0.06 0.06 0.09 0.06 0.18 0.18 0.31 0.30
0.00 0.00 0.00 0.00 0.00 0.00 0.00 0.00 0.00 0.00 0.00 0.00 -0.00 -0.00 -0.00 -0.01 -0.01 -0.01 -0.01 -0.02 -0.02 -0.02 -0.02 -0.02 -0.02 -0.02 -0.02 -0.02 -0.02 -0.02 -0.02 -0.02 -0.02 -0.02 -0.02 -0.01 -0.01 -0.01 -0.01 -0.01 -0.01 -0.01 -0.01 -0.01 -0.01 -0.01 -0.01 -0.00 -0.00 -0.00 -0.00 -0.00 -0.00 -0.00 -0.00 -0.00 -0.00 -0.00 -0.00 -0.00 -0.00 -0.00 -0.00 -0.01 -0.07 -0.07 -0.08 -0.05 -0.07 -0.07 -0.13 -0.16 -0.26 -0.26 -0.28 -0.30 -0.30 -0.38 -0.51 -0.63 -0.63 -0.80 -0.96 -1.01 -1.01 -1.01 -0.93 -0.82 -0.57 -0.57 -0.25 0.00 0.00 0.00 0.01 0.04 0.04 0.10 0.13 0.21 0.21 0.32 0.36
0.00 0.00 0.00 0.00 0.00 0.00 0.00 0.00 0.00 0.00 0.00 0.00 -0.00 -0.00 -0.00 -0.01 -0.01 -0.01 -0.01 -0.02 -0.02 -0.02 -0.02 -0.02 -0.02 -0.02 -0.02 -0.02 -0.02 -0.02 -0.02 -0.02 -0.02 -0.02 -0.02 -0.02 -0.02 -0.01 -0.01 -0.01 -0.01 -0.01 -0.02 -0.01 -0.01 -0.01 -0.01 -0.01 -0.00 -0.00 -0.01 -0.00 -0.00 -0.00 -0.00 0.00 0.00 -0.00 -0.00 -0.00 -0.00 -0.00 -0.01 -0.01 -0.02 -0.02 -0.12 -0.11 -0.05 -0.05 -0.13 -0.19 -0.24 -0.24 -0.31 -0.31 -0.31 -0.37 -0.45 -0.65 -0.65 -0.81 -0.99 -1.06 -1.10 -1.10 -1.18 -0.85 -0.57 -0.57 -0.25 -0.03 0.00 0.00 0.00 0.00 0.00 0.02 0.18 0.30 0.30 0.28 0.42
0.00 0.00 0.00 0.00 0.00 0.00 0.00 0.00 0.00 0.00 0.00 0.00 -0.00 -0.00 -0.00 -0.01 -0.01 -0.01 -0.01 -0.02 -0.02 -0.02 -0.02 -0.03 -0.03 -0.03 -0.02 -0.02 -0.02 -0.02 -0.02 -0.01 -0.02 -0.02 -0.02 -0.01 -0.01 -0.01 -0.01 -0.01 -0.01 -0.02 -0.02 -0.02 -0.02 -0.02 -0.02 -0.01 -0.01 -0.01 -0.01 -0.01 -0.00 -0.00 -0.00 -0.00 -0.00 -0.00 -0.00 -0.00 -0.00 -0.00 -0.01 -0.01 -0.01 -0.01 -0.13 -0.15 -0.09 -0.09 -0.09 -0.19 -0.26 -0.26 -0.29 -0.34 -0.34 -0.36 -0.43 -0.65 -0.65 -0.82 -0.99 -1.09 -1.16 -1.16 -1.30 -1.22 -0.56 -0.56 -0.23 -0.02 0.00 0.00 0.00 0.00 0.00 0.01 0.04 0.22 0.22 0.35 0.30
0.00 0.00 0.00 0.00 0.00 0.00 0.00 0.00 0.00 0.00 0.00 0.00 -0.00 -0.00 -0.00 -0.01 -0.01 -0.01 -0.02 -0.02 -0.02 -0.01 -0.02 -0.03 -0.04 -0.04 -0.03 -0.02 -0.02 -0.02 -0.02 -0.01 -0.02 -0.02 -0.02 -0.02 -0.02 -0.02 -0.01 -0.01 -0.01 -0.01 -0.02 -0.03 -0.03 -0.03 -0.02 -0.02 -0.01 -0.01 -0.01 -0.01 -0.00 -0.00 -0.00 -0.01 -0.01 -0.00 -0.00 -0.00 -0.00 -0.00 -0.01 -0.01 -0.01 -0.01 -0.07 -0.15 -0.12 -0.12 -0.13 -0.21 -0.27 -0.27 -0.32 -0.39 -0.39 -0.44 -0.45 -0.54 -0.54 -0.84 -1.02 -1.14 -1.18 -1.18 -1.34 -1.27 -0.86 -0.86 -0.19 -0.01 0.00 0.00 0.00 0.00 0.00 0.00 0.01 0.04 0.04 0.30 0.31
0.00 0.00 0.00 0.00 0.00 0.00 0.00 0.00 0.00 0.00 0.00 0.00 -0.00 -0.00 -0.00 -0.00 -0.00 -0.01 -0.02 -0.02 -0.02 -0.02 -0.01 -0.01 -0.03 -0.03 -0.03 -0.02 -0.02 -0.02 -0.02 -0.01 -0.02 -0.02 -0.02 -0.02 -0.02 -0.02 -0.01 -0.01 -0.01 -0.01 -0.03 -0.04 -0.04 -0.04 -0.03 -0.02 -0.03 -0.03 -0.02 -0.01 -0.01 -0.01 -0.01 -0.02 -0.02 -0.01 -0.01 -0.00 -0.00 -0.00 -0.01 -0.01 -0.02 -0.02 -0.08 -0.14 -0.14 -0.14 -0.17 -0.20 -0.32 -0.32 -0.33 -0.41 -0.41 -0.49 -0.50 -0.56 -0.56 -0.76 -1.06 -1.19 -1.24 -1.24 -1.33 -1.30 -0.86 -0.86 -0.49 -0.17 0.00 0.00 0.00 0.00 0.00 0.00 0.01 0.04 0.04 0.11 0.33
0.00 0.00 0.00 0.00 0.00 0.00 0.00 0.00 0.00 0.00 0.00 0.00 -0.00 -0.00 -0.00 -0.00 -0.00 -0.00 -0.01 -0.02 -0.02 -0.02 -0.01 -0.01 -0.02 -0.02 -0.03 -0.04 -0.03 -0.03 -0.02 -0.02 -0.01 -0.01 -0.01 -0.02 -0.02 -0.02 -0.02 -0.01 -0.01 -0.01 -0.01 -0.01 -0.02 -0.02 -0.02 -0.04 -0.03 -0.03 -0.03 -0.05 -0.05 -0.05 -0.05 -0.01 -0.01 -0.01 -0.01 -0.01 -0.01 -0.01 -0.01 -0.01 -0.01 -0.01 -0.09 -0.17 -0.22 -0.22 -0.19 -0.21 -0.29 -0.29 -0.37 -0.47 -0.47 -0.59 -0.59 -0.57 -0.57 -0.77 -1.03 -1.17 -1.37 -1.37 -1.48 -1.46 -1.37 -1.37 -0.45 -0.10 -0.03 -0.03 -0.00 0.00 0.00 0.00 0.01 0.04 0.04 0.17 0.29
0.00 0.00 0.00 0.00 0.00 0.00 0.00 0.00 0.00 0.00 0.00 0.00 0.00 0.00 -0.00 -0.00 -0.00 -0.00 -0.01 -0.02 -0.02 -0.02 -0.02 -0.01 -0.01 -0.01 -0.02 -0.03 -0.03 -0.03 -0.02 -0.02 -0.02 -0.02 -0.02 -0.03 -0.03 -0.02 -0.02 -0.01 -0.01 -0.01 -0.01 -0.01 -0.00 -0.00 -0.00 -0.01 -0.04 -0.04 -0.04 -0.02 -0.02 -0.02 -0.01 -0.01 -0.01 -0.01 -0.01 -0.01 -0.01 -0.01 -0.02 -0.01 -0.02 -0.02 -0.04 -0.18 -0.25 -0.25 -0.25 -0.20 -0.23 -0.23 -0.40 -0.50 -0.50 -0.68 -0.64 -0.58 -0.58 -0.61 -0.99 -1.22 -1.30 -1.30 -1.57 -1.54 -1.38 -1.38 -0.97 -0.08 -0.01 -0.01 -0.00 -0.00 -0.00 0.01 0.02 0.08 0.08 0.14 0.27
0.00 0.00 0.00 0.00 0.00 0.00 0.00 0.00 0.00 0.00 0.00 0.00 0.00 0.00 -0.00 -0.00 -0.00 -0.00 -0.01 -0.01 -0.01 -0.02 -0.02 -0.02 -0.02 -0.02 -0.02 -0.02 -0.02 -0.02 -0.02 -0.02 -0.03 -0.03 -0.04 -0.03 -0.03 -0.02 -0.01 -0.01 -0.01 -0.01 -0.01 -0.01 -0.00 -0.00 -0.00 -0.00 -0.03 -0.03 -0.03 -0.04 -0.02 -0.02 -0.01 -0.02 -0.02 -0.01 -0.01 -0.01 -0.01 -0.02 -0.03 -0.02 -0.03 -0.03 -0.05 -0.10 -0.35 -0.35 -0.31 -0.36 -0.26 -0.26 -0.44 -0.58 -0.58 -0.74 -0.73 -0.62 -0.62 -0.59 -0.61 -1.20 -1.36 -1.36 -1.53 -1.56 -1.40 -1.40 -1.06 -0.54 -0.00 -0.00 -0.01 -0.00 -0.00 0.00 0.04 0.09 0.09 0.15 0.18
0.00 0.00 0.00 0.00 0.00 0.00 0.00 0.00 0.00 0.00 0.00 0.00 0.00 0.00 -0.00 -0.00 -0.00 -0.01 -0.01 -0.02 -0.02 -0.02 -0.02 -0.02 -0.02 -0.02 -0.01 -0.01 -0.02 -0.02 -0.02 -0.02 -0.06 -0.06 -0.05 -0.04 -0.04 -0.01 -0.01 -0.01 -0.01 -0.02 -0.02 -0.01 -0.01 -0.01 -0.00 -0.01 -0.02 -0.02 -0.06 -0.04 -0.03 -0.03 -0.05 -0.03 -0.03 -0.03 -0.04 -0.02 -0.02 -0.05 -0.06 -0.05 -0.04 -0.04 -0.06 -0.11 -0.19 -0.19 -0.47 -0.53 -0.42 -0.42 -0.46 -0.61 -0.61 -0.67 -0.75 -0.68 -0.68 -0.60 -0.54 -0.80 -1.41 -1.41 -1.61 -1.71 -1.40 -1.40 -1.10 -0.57 -0.09 -0.09 -0.01 -0.00 -0.00 0.00 0.01 0.06 0.06 0.11 0.13
0.00 0.00 0.00 0.00 0.00 0.00 0.00 0.00 0.00 0.00 0.00 0.00 0.00 0.00 -0.00 -0.01 -0.01 -0.01 -0.01 -0.02 -0.02 -0.03 -0.02 -0.02 -0.02 -0.02 -0.01 -0.01 -0.01 -0.01 -0.01 -0.02 -0.04 -0.04 -0.04 -0.02 -0.02 -0.01 -0.01 -0.01 -0.01 -0.03 -0.02 -0.01 -0.01 -0.01 -0.01 -0.00 -0.00 -0.00 -0.01 -0.07 -0.05 -0.05 -0.06 -0.05 -0.05 -0.07 -0.07 -0.06 -0.06 -0.09 -0.10 -0.08 -0.06 -0.06 -0.08 -0.12 -0.18 -0.18 -0.53 -0.63 -0.59 -0.59 -0.51 -0.59 -0.59 -0.60 -0.70 -0.77 -0.77 -0.62 -0.58 -0.70 -1.15 -1.15 -1.68 -1.74 -1.69 -1.69 -1.50 -0.57 -0.18 -0.18 -0.00 -0.01 -0.01 0.00 0.01 0.01 0.01 0.02 0.07
0.00 0.00 0.00 0.00 0.00 0.00 0.00 0.00 0.00 0.00 0.00 0.00 0.00 0.00 0.00 -0.00 -0.00 -0.01 -0.01 -0.03 -0.03 -0.03 -0.02 -0.03 -0.02 -0.02 -0.02 -0.02 -0.02 -0.02 -0.02 -0.02 -0.03 -0.03 -0.04 -0.03 -0.03 -0.02 -0.01 -0.05 -0.05 -0.02 -0.01 -0.00 -0.00 -0.00 -0.00 -0.02 -0.01 -0.01 -0.00 -0.00 -0.04 -0.04 -0.01 -0.03 -0.03 -0.08 -0.08 -0.07 -0.07 -0.06 -0.11 -0.14 -0.09 -0.09 -0.09 -0.11 -0.16 -0.16 -0.23 -0.67 -0.76 -0.76 -0.65 -0.52 -0.52 -0.63 -0.61 -0.76 -0.76 -0.86 -0.74 -0.76 -1.17 -1.17 -1.68 -1.88 -1.72 -1.72 -1.59 -1.24 -0.23 -0.23 -0.01 -0.01 -0.01 -0.00 0.00 0.00 0.00 0.00 0.02
0.00 0.00 0.00 0.00 0.00 0.00 0.00 0.00 0.00 0.00 0.00 0.00 0.00 0.00 0.00 -0.00 -0.00 -0.01 -0.01 -0.02 -0.02 -0.03 -0.02 -0.02 -0.03 -0.03 -0.02 -0.02 -0.02 -0.02 -0.02 -0.03 -0.03 -0.03 -0.06 -0.06 -0.06 -0.04 -0.03 -0.01 -0.01 -0.00 -0.00 0.00 -0.00 -0.00 -0.02 -0.01 -0.01 -0.01 -0.00 -0.00 -0.00 -0.00 -0.00 -0.00 -0.00 -0.02 -0.06 -0.06 -0.06 -0.05 -0.05 -0.12 -0.11 -0.11 -0.10 -0.09 -0.13 -0.13 -0.17 -0.31 -0.95 -0.95 -0.92 -0.72 -0.72 -0.76 -0.77 -0.89 -0.89 -0.93 -1.02 -0.82 -1.18 -1.18 -1.71 -1.98 -1.83 -1.83 -1.67 -1.42 -0.79 -0.79 -0.01 -0.01 -0.01 -0.00 -0.00 0.00 0.00 0.00 0.02
0.00 0.00 0.00 0.00 0.00 0.00 0.00 0.00 0.00 0.00 0.00 0.00 0.00 0.00 0.00 -0.00 -0.00 -0.01 -0.01 -0.01 -0.01 -0.01 -0.02 -0.02 -0.01 -0.01 -0.02 -0.02 -0.02 -0.02 -0.04 -0.03 -0.04 -0.04 -0.05 -0.06 -0.06 -0.06 -0.04 -0.00 -0.00 0.00 0.00 0.00 -0.00 -0.00 -0.01 -0.03 -0.02 -0.02 -0.01 -0.00 -0.00 -0.00 -0.00 -0.00 -0.00 -0.01 -0.01 -0.06 -0.06 -0.04 -0.04 -0.04 -0.08 -0.08 -0.10 -0.10 -0.10 -0.10 -0.14 -0.25 -0.68 -0.68 -1.01 -0.83 -0.83 -0.89 -0.78 -0.85 -0.85 -1.03 -1.13 -1.09 -1.19 -1.19 -1.71 -2.04 -2.20 -2.20 -1.87 -1.48 -0.92 -0.92 -0.36 -0.02 -0.02 -0.00 -0.00 0.00 0.00 -0.01 0.01
0.00 0.00 0.00 0.00 0.00 0.00 0.00 0.00 0.00 0.00 0.00 0.00 0.00 0.00 0.00 0.00 0.00 -0.00 -0.01 -0.01 -0.01 -0.01 -0.03 -0.03 -0.01 -0.01 -0.02 -0.02 -0.02 -0.02 -0.02 -0.04 -0.05 -0.05 -0.05 -0.01 -0.01 -0.01 -0.01 -0.03 -0.03 -0.01 -0.00 -0.00 -0.00 -0.00 -0.04 -0.01 -0.01 -0.01 -0.03 -0.02 -0.01 -0.01 -0.01 -0.00 -0.00 -0.00 -0.01 -0.01 -0.01 -0.01 -0.02 -0.03 -0.07 -0.07 -0.10 -0.12 -0.10 -0.10 -0.11 -0.24 -0.73 -0.73 -1.09 -1.00 -1.00 -0.94 -0.88 -0.86 -0.86 -1.10 -1.15 -1.23 -1.13 -1.13 -1.65 -2.12 -2.14 -2.14 -2.05 -1.49 -0.96 -0.96 -0.45 -0.14 -0.14 -0.00 -0.00 0.02 0.02 0.01 -0.00
0.00 0.00 0.00 0.00 0.00 0.00 0.00 0.00 0.00 0.00 0.00 0.00 0.00 0.00 0.00 0.00 0.00 -0.00 -0.01 -0.01 -0.01 -0.02 -0.04 -0.05 -0.03 -0.03 -0.01 -0.02 -0.02 -0.02 -0.00 -0.04 -0.03 -0.03 -0.04 -0.02 -0.02 -0.01 -0.01 -0.04 -0.04 -0.04 -0.00 0.00 -0.00 -0.00 -0.01 -0.01 -0.01 -0.01 -0.01 -0.01 -0.01 -0.01 -0.01 -0.01 -0.01 -0.01 -0.01 -0.01 -0.01 -0.01 -0.01 -0.02 -0.05 -0.05 -0.08 -0.12 -0.13 -0.13 -0.09 -0.27 -0.82 -0.82 -1.25 -1.45 -1.45 -1.03 -0.89 -0.99 -0.99 -1.13 -1.27 -1.24 -1.20 -1.20 -1.25 -1.96 -2.18 -2.18 -1.95 -1.77 -0.99 -0.99 -0.51 -0.17 -0.17 -0.05 0.00 0.02 0.02 0.02 0.01
0.00 0.00 0.00 0.00 0.00 0.00 0.00 0.00 0.00 0.00 0.00 0.00 0.00 0.00 0.00 0.00 0.00 -0.00 -0.00 -0.01 -0.01 -0.02 -0.02 -0.05 -0.05 -0.05 -0.03 -0.01 -0.01 -0.01 -0.00 -0.01 -0.02 -0.02 -0.03 -0.04 -0.04 -0.07 -0.03 -0.03 -0.03 -0.02 -0.01 -0.01 0.00 0.00 0.00 -0.00 -0.01 -0.01 -0.01 -0.01 -0.01 -0.01 -0.01 -0.01 -0.01 -0.01 -0.01 -0.01 -0.01 -0.01 -0.01 -0.02 -0.04 -0.04 -0.06 -0.13 -0.14 -0.14 -0.13 -0.16 -0.87 -0.87 -1.35 -1.49 -1.49 -1.43 -0.89 -1.04 -1.04 -1.21 -1.17 -1.31 -1.20 -1.20 -1.15 -1.37 -1.99 -1.99 -1.81 -1.68 -1.37 -1.37 -0.97 -0.17 -0.17 -0.06 0.00 0.01 0.01 0.02 0.01
0.00 0.00 0.00 0.00 0.00 0.00 0.00 0.00 0.00 0.00 0.00 0.00 0.00 0.00 0.00 0.00 0.00 -0.00 -0.00 -0.01 -0.01 -0.02 -0.02 -0.04 -0.05 -0.05 -0.04 -0.01 -0.01 -0.01 -0.01 -0.00 -0.02 -0.02 -0.04 -0.07 -0.07 -0.10 -0.05 -0.03 -0.03 -0.05 -0.04 -0.03 -0.01 -0.01 0.00 0.00 0.00 0.00 0.00 -0.00 -0.01 -0.01 -0.01 -0.01 -0.01 -0.01 -0.01 -0.00 -0.00 -0.00 -0.01 -0.01 -0.03 -0.03 -0.05 -0.08 -0.12 -0.12 -0.15 -0.19 -0.41 -0.41 -1.40 -1.68 -1.68 -1.51 -1.22 -0.98 -0.98 -1.14 -1.17 -1.24 -1.31 -1.31 -1.23 -1.21 -1.64 -1.64 -1.74 -1.61 -1.32 -1.32 -0.94 -0.51 -0.51 -0.09 -0.02 0.00 0.00 0.01 0.01
0.00 0.00 0.00 0.00 0.00 0.00 0.00 0.00 0.00 0.00 0.00 0.00 0.00 0.00 0.00 0.00 0.00 -0.00 -0.00 -0.01 -0.01 -0.02 -0.03 -0.03 -0.06 -0.06 -0.06 -0.03 -0.03 -0.03 -0.03 -0.02 -0.01 -0.01 -0.03 -0.04 -0.04 -0.07 -0.13 -0.08 -0.08 -0.05 -0.03 -0.02 -0.01 -0.01 -0.00 -0.00 -0.00 -0.00 0.00 0.00 -0.00 -0.00 -0.01 -0.01 -0.01 -0.01 -0.00 -0.01 -0.01 -0.01 -0.01 -0.00 -0.03 -0.03 -0.04 -0.06 -0.11 -0.11 -0.16 -0.24 -0.48 -0.48 -0.88 -1.71 -1.71 -1.69 -1.33 -1.06 -1.06 -1.13 -1.12 -1.29 -1.34 -1.34 -1.33 -1.34 -1.63 -1.63 -1.68 -1.63 -1.29 -1.29 -0.91 -0.53 -0.53 -0.23 -0.04 -0.00 -0.00 0.01 0.02
0.00 0.00 0.00 0.00 0.00 0.00 0.00 0.00 0.00 0.00 0.00 0.00 0.00 0.00 0.00 0.00 0.00 -0.00 -0.00 -0.01 -0.01 -0.01 -0.03 -0.04 -0.07 -0.07 -0.08 -0.06 -0.06 -0.06 -0.03 -0.03 -0.03 -0.03 -0.05 -0.06 -0.06 -0.10 -0.19 -0.18 -0.18 -0.12 -0.06 -0.02 -0.00 -0.00 -0.01 -0.01 -0.01 -0.01 0.00 0.00 -0.00 -0.00 -0.00 -0.01 -0.01 -0.00 -0.00 -0.01 -0.01 -0.01 -0.01 -0.01 -0.01 -0.01 -0.04 -0.06 -0.09 -0.09 -0.16 -0.31 -0.50 -0.50 -0.81 -1.01 -1.01 -1.77 -1.45 -1.18 -1.18 -1.16 -1.12 -1.18 -1.32 -1.32 -1.36 -1.33 -1.70 -1.70 -1.63 -1.51 -1.40 -1.40 -0.92 -0.54 -0.54 -0.25 -0.11 -0.03 -0.03 0.01 0.03
0.00 0.00 0.00 0.00 0.00 0.00 0.00 0.00 0.00 0.00 0.00 0.00 0.00 0.00 0.00 -0.00 -0.00 -0.00 -0.00 -0.00 -0.00 -0.01 -0.03 -0.04 -0.07 -0.07 -0.10 -0.10 -0.09 -0.09 -0.05 -0.03 -0.04 -0.04 -0.04 -0.07 -0.07 -0.16 -0.26 -0.25 -0.25 -0.21 -0.16 -0.09 -0.11 -0.11 -0.02 -0.03 -0.04 -0.04 -0.01 -0.00 -0.01 -0.01 -0.00 -0.00 -0.00 -0.02 -0.01 -0.00 -0.00 -0.01 -0.01 -0.01 -0.02 -0.02 -0.04 -0.07 -0.11 -0.11 -0.19 -0.28 -0.50 -0.50 -0.71 -0.93 -0.93 -1.38 -1.58 -1.25 -1.25 -1.23 -1.14 -1.12 -1.30 -1.30 -1.26 -1.30 -1.36 -1.36 -1.46 -1.38 -1.35 -1.35 -1.15 -0.89 -0.89 -0.25 -0.12 -0.02 -0.02 -0.01 0.03
0.00 0.00 0.00 0.00 0.00 0.00 0.00 0.00 0.00 0.00 0.00 0.00 0.00 0.00 0.00 -0.00 -0.00 -0.00 -0.00 -0.00 -0.00 -0.01 -0.02 -0.04 -0.06 -0.06 -0.08 -0.08 -0.09 -0.09 -0.08 -0.05 -0.02 -0.02 -0.01 -0.03 -0.03 -0.20 -0.24 -0.26 -0.26 -0.25 -0.24 -0.17 -0.21 -0.21 -0.09 -0.04 -0.07 -0.07 -0.03 -0.01 -0.01 -0.01 -0.02 -0.00 -0.00 -0.00 -0.00 -0.00 -0.00 -0.00 -0.01 -0.01 -0.02 -0.02 -0.05 -0.08 -0.13 -0.13 -0.22 -0.32 -0.42 -0.42 -0.69 -0.92 -0.92 -1.20 -1.55 -1.30 -1.30 -1.25 -1.27 -1.18 -1.14 -1.14 -1.20 -1.22 -1.28 -1.28 -1.32 -1.23 -1.16 -1.16 -1.03 -0.95 -0.95 -0.57 -0.09 -0.02 -0.02 -0.02 0.01
0.00 0.00 0.00 0.00 0.00 0.00 0.00 0.00 0.00 0.00 0.00 0.00 0.00 0.00 -0.00 -0.00 -0.00 -0.00 -0.00 -0.00 -0.00 -0.01 -0.02 -0.05 -0.07 -0.07 -0.07 -0.09 -0.09 -0.09 -0.09 -0.07 -0.04 -0.04 -0.03 -0.04 -0.04 -0.17 -0.19 -0.21 -0.21 -0.23 -0.22 -0.20 -0.21 -0.21 -0.21 -0.09 -0.08 -0.08 -0.09 -0.02 -0.01 -0.01 -0.01 -0.00 -0.00 -0.00 -0.00 -0.00 -0.00 -0.00 -0.00 -0.01 -0.02 -0.02 -0.05 -0.11 -0.12 -0.12 -0.26 -0.32 -0.45 -0.45 -0.56 -0.90 -0.90 -1.14 -1.38 -1.43 -1.43 -1.21 -1.32 -1.26 -1.17 -1.17 -1.15 -1.15 -1.24 -1.24 -1.17 -1.21 -1.10 -1.10 -0.90 -0.90 -0.90 -0.61 -0.26 -0.03 -0.03 -0.02 -0.01
0.00 0.00 0.00 0.00 0.00 0.00 0.00 0.00 0.00 0.00 0.00 0.00 0.00 0.00 -0.00 -0.00 -0.00 -0.00 -0.00 -0.00 -0.00 -0.00 -0.03 -0.06 -0.08 -0.08 -0.08 -0.08 -0.11 -0.11 -0.11 -0.09 -0.06 -0.06 -0.05 -0.06 -0.06 -0.10 -0.17 -0.15 -0.15 -0.16 -0.18 -0.20 -0.13 -0.13 -0.17 -0.23 -0.21 -0.21 -0.17 -0.17 -0.09 -0.09 -0.01 -0.02 -0.02 -0.01 -0.00 -0.00 -0.00 -0.00 -0.00 -0.00 -0.03 -0.03 -0.06 -0.11 -0.15 -0.15 -0.21 -0.35 -0.45 -0.45 -0.61 -0.80 -0.80 -1.13 -1.28 -1.31 -1.31 -1.19 -1.12 -1.33 -1.27 -1.27 -1.20 -1.14 -1.09 -1.09 -1.05 -1.06 -0.99 -0.99 -0.77 -0.82 -0.82 -0.58 -0.22 -0.02 -0.02 0.01 0.02
0.00 0.00 0.00 0.00 0.00 0.00 0.00 0.00 0.00 0.00 0.00 0.00 0.00 0.00 -0.00 -0.00 -0.00 -0.00 -0.00 -0.00 -0.00 -0.00 -0.03 -0.06 -0.08 -0.08 -0.06 -0.08 -0.13 -0.13 -0.13 -0.09 -0.05 -0.05 -0.07 -0.08 -0.08 -0.12 -0.13 -0.13 -0.13 -0.11 -0.11 -0.14 -0.05 -0.05 -0.09 -0.19 -0.37 -0.37 -0.28 -0.19 -0.13 -0.13 -0.06 -0.02 -0.02 -0.01 -0.01 -0.00 -0.00 -0.00 -0.01 -0.01 -0.02 -0.02 -0.07 -0.10 -0.15 -0.15 -0.21 -0.31 -0.43 -0.43 -0.61 -0.76 -0.76 -0.99 -1.18 -1.21 -1.21 -1.13 -1.09 -1.23 -1.35 -1.35 -1.27 -1.15 -1.12 -1.12 -1.07 -0.92 -0.84 -0.84 -0.59 -0.64 -0.64 -0.78 -0.20 -0.03 -0.03 0.03 0.01